Gallup, NM

7:37 AM MDT on March 25, 2017 (GMT -0600)
Gallup Municipal

Weather History for KGUP - July, 2014

Change the Weather History Date:

Thursday, July 17, 2014

  Actual Average Record
Temperature  
Mean Temperature 72 °F -  
Max Temperature 90 °F 86 °F 97 °F (2010)
Min Temperature 54 °F 52 °F 44 °F (1993)
Cooling Degree Days 7    
Growing Degree Days 22 (Base 50)    
Moisture  
Dew Point 43 °F    
Average Humidity 48    
Maximum Humidity 93    
Minimum Humidity 12    
Precipitation  
Precipitation 0.00 in - - ()
Sea Level Pressure  
Sea Level Pressure 29.68 in    
Wind  
Wind Speed 6 mph (West)    
Max Wind Speed 21 mph    
Max Gust Speed 28 mph    
Visibility 10 miles    
Events      
Averages and records for this station are not official NWS values.
T = Trace of Precipitation, MM = Missing Value Source: NWS Daily Summary

Daily Weather History Graph

Daily Weather History Graph

Search for Another Location

Airport or City:

Trip Planner

Search our weather history database for the weather conditions in past years. The results will help you decide how hot, cold, wet, or windy it might be!

Date:

Astronomy

Jul. 17, 2014 Rise Set
Actual Time 6:12 AM MDT 8:29 PM MDT
Civil Twilight 5:43 AM MDT 8:58 PM MDT
Nautical Twilight 5:07 AM MDT 9:34 PM MDT
Astronomical Twilight 4:28 AM MDT 10:13 PM MDT
Moon No Moon Rise 12:13 PM MDT (7/17)
Length of Visible Light 15h 15m
Length of Day
14h 17m
Waning Gibbous, 65% of the Moon is Illuminated
Jul 17
Waning Gibbous
Jul 18
Last Quarter
Jul 26
New
Aug 3
First Quarter
Aug 10
Full

Hourly Weather History & Observations

Time (MDT) Temp. Dew Point Humidity Pressure Visibility Wind Dir Wind Speed Gust Speed Precip Events Conditions
12:53 AM 57.9 °F 53.1 °F 84% 29.69 in 10.0 mi Calm Calm - N/A   Clear
1:53 AM 57.0 °F 53.1 °F 87% 29.68 in 10.0 mi South 5.8 mph - N/A   Clear
2:53 AM 55.0 °F 52.0 °F 89% 29.67 in 10.0 mi WSW 3.5 mph - N/A   Mostly Cloudy
3:53 AM 55.9 °F 52.0 °F 87% 29.73 in 10.0 mi WSW 3.5 mph - N/A   Clear
4:53 AM 55.0 °F 52.0 °F 89% 29.80 in 10.0 mi ENE 5.8 mph - N/A   Scattered Clouds
5:53 AM 54.0 °F 52.0 °F 93% 29.80 in 10.0 mi SSW 5.8 mph - N/A   Mostly Cloudy
6:53 AM 57.0 °F 53.1 °F 87% 29.80 in 10.0 mi Calm Calm - N/A   Mostly Cloudy
7:53 AM 62.1 °F 54.0 °F 75% 29.81 in 10.0 mi SW 4.6 mph - N/A   Clear
8:53 AM 66.0 °F 55.0 °F 68% 29.78 in 10.0 mi SW 6.9 mph - N/A   Clear
9:53 AM 70.0 °F 55.0 °F 59% 29.75 in 10.0 mi SW 5.8 mph - N/A   Clear
10:53 AM 72.0 °F 54.0 °F 53% 29.76 in 10.0 mi West 4.6 mph - N/A   Clear
11:53 AM 79.0 °F 53.1 °F 40% 29.71 in 10.0 mi SW 5.8 mph - N/A   Clear
12:53 PM 84.9 °F 30.9 °F 14% 29.64 in 10.0 mi WNW 20.7 mph 27.6 mph N/A   Clear
1:53 PM 87.1 °F 28.9 °F 12% 29.62 in 10.0 mi NW 15.0 mph 25.3 mph N/A   Clear
2:53 PM 87.1 °F 30.9 °F 13% 29.63 in 10.0 mi North 15.0 mph 25.3 mph N/A   Clear
3:53 PM 87.1 °F 30.9 °F 13% 29.60 in 10.0 mi NW 12.7 mph 23.0 mph N/A   Partly Cloudy
4:53 PM 89.1 °F 30.9 °F 12% 29.58 in 10.0 mi WNW 9.2 mph 24.2 mph N/A   Scattered Clouds
5:53 PM 90.0 °F 30.9 °F 12% 29.56 in 10.0 mi West 19.6 mph 24.2 mph N/A   Clear
6:53 PM 88.0 °F 30.0 °F 12% 29.54 in 10.0 mi WNW 13.8 mph 18.4 mph N/A   Clear
7:53 PM 84.9 °F 28.9 °F 13% 29.54 in 10.0 mi WNW 13.8 mph - N/A   Clear
8:53 PM 79.0 °F 32.0 °F 18% 29.57 in 10.0 mi NNW 5.8 mph - N/A   Clear
9:53 PM 69.1 °F 39.0 °F 33% 29.64 in 10.0 mi Calm Calm - N/A   Clear
10:53 PM 66.9 °F 39.0 °F 36% 29.66 in 10.0 mi Calm Calm - N/A   Clear